Home   Weather   Izmir   Past weeks
Flag for Turkey

Past Weather in Izmir, Turkey — Yesterday and Last 2 Weeks

Now
45 °F

Clear.


Feels Like: 45 °F
Forecast: 59 / 44 °F
Wind: No wind

Location: Izmir / Cigli

Current Time: Feb 22, 2019 at 1:34:23 am

Latest Report: Feb 22, 2019 at 12:50 am


Visibility: 10 mi

Pressure: 30.15 "Hg

Humidity: 87%

Dew Point: 41 °F

Location of IzmirLocation

Past Weather in Izmir — Graph

°F

Izmir Temperature Yesterday

Maximum temperature yesterday: 61 °F (at 3:50 pm)
Minimum temperature yesterday: 41 °F (at 5:10 am)
Average temperature yesterday: 50 °F

High & Low Weather Summary for the Past Weeks

 TemperatureHumidityPressure
High64 °F (Feb 20, 3:50 pm)100% (Feb 12, 6:50 pm)30.24 "Hg (Feb 12, 6:50 pm)
Low34 °F (Feb 17, 5:50 am)44% (Feb 17, 3:50 pm)29.89 "Hg (Feb 7, 3:50 pm)
Average48 °F75%30.07 "Hg
* Reported Feb 6 11:50 pm — Feb 21 11:50 pm, Izmir. Weather by CustomWeather, © 2019

Note: Actual official high and low records may vary slightly from our data, if they occured in-between our weather recording intervals... More about our weather records

Advertising

Izmir Weather History for the Previous 24 Hours

Scroll right to see more
 ConditionsComfort  
Time TempWeatherWind HumidityBarometerVisibility
11:50 pm
Thu, Feb 21
48 °FClear.No wind82%30.15 "Hg10 mi
10:50 pm48 °FClear.No wind82%30.15 "Hg10 mi
9:50 pm50 °FClear.5 mph88%30.15 "Hg10 mi
8:50 pm52 °FClear.2 mph82%30.15 "Hg10 mi
7:50 pm54 °FClear.2 mph77%30.15 "Hg10 mi
6:50 pm55 °FClear.5 mph77%30.15 "Hg5 mi
5:50 pm61 °FClear.6 mph59%30.15 "Hg5 mi
4:50 pm61 °FClear.9 mph63%30.15 "Hg5 mi
3:50 pm61 °FClear.9 mph68%30.15 "Hg5 mi
2:50 pm59 °FClear.8 mph77%30.15 "Hg5 mi
1:50 pm59 °FPassing clouds.5 mph68%30.15 "HgN/A
12:50 pm59 °FPassing clouds.3 mph72%30.18 "HgN/A
11:50 am57 °FClear.1 mph72%30.18 "Hg4 mi
10:50 am55 °FClear.3 mph77%30.18 "Hg4 mi
9:50 am50 °FFog.No wind94%30.18 "Hg2 mi
8:50 am46 °FFog.No wind93%30.18 "Hg2 mi
8:00 am45 °FFog.2 mph100%30.15 "Hg1 mi
7:50 am45 °FFog.No wind100%30.15 "Hg2 mi
7:05 am43 °FFog.No wind93%30.15 "Hg1 mi
6:50 am41 °FLight fog.No wind100%30.15 "Hg1 mi
5:50 am41 °FFog.No wind93%30.15 "Hg0 mi
5:10 am41 °FFog.No wind100%30.12 "Hg0 mi
4:50 am43 °FLight fog.No wind93%30.12 "Hg1 mi
3:50 am43 °FFog.No wind93%30.15 "Hg1 mi
2:50 am45 °FFog.No wind93%30.15 "Hg1 mi
1:50 am46 °FFog.No wind93%30.15 "Hg1 mi
Weather by CustomWeather, © 2019

See weather overview